Regional Weather Roundup
Issued by NWS

Home | Current Version | Previous Version | Graphics & Text | Print | Product List | Glossary On
Versions: 1 2 3 4 5 6 7 8 9 10 11 12 13 14 15 16 17 18 19 20 21 22 23 24 25 26 27 28 29 30 31 32 33 34 35 36 37 38 39 40 41 42 43 44 45 46 47 48 49 50
000
ASUS43 KIND 011459
RWRIN

WEATHER ROUNDUP FOR INDIANA
NATIONAL WEATHER SERVICE INDIANAPOLIS IN
1000 AM EST SUN MAR 01 2015

NOTE: "FAIR" INDICATES FEW OR NO CLOUDS BELOW 12,000 FEET WITH NO
SIGNIFICANT WEATHER AND/OR OBSTRUCTIONS TO VISIBILITY.

* - STATION DOES NOT REPORT WEATHER SUCH AS PRECIPITATION OR FOG.

+ - STATION NOT QUALITY CONTROLLED BY THE NATIONAL WEATHER SERVICE.
    USE DATA WITH CAUTION...ESPECIALLY DEWPOINT AND RELATIVE
    HUMIDITY OBSERVATIONS.

INZ001>003-010>013-019-020-011600-
NORTHWEST INDIANA

CITY           SKY/WX    TMP DP  RH WIND       PRES   REMARKS
GARY /AIRPORT/ LGT SNOW  21  14  73 S5        30.40R WCI  15
VALPARAISO     LGT SNOW  18  15  88 NE3       30.38R VSB 3/4

$$

LMZ046-743>745-011600-
SOUTHERN LAKE MICHIGAN

STATION/POSITION TIME  TEMP WIND        PRES
                       AIR  DIR/SP/G
                 (UTC) (F)  (DEG/KT/KT) (MB)
MICHIGAN CITY    1400   17  110/  4/  5   N/A

$$

INZ004-005-014>016-021>024-011600-
NORTH CENTRAL INDIANA

CITY           SKY/WX    TMP DP  RH WIND       PRES   REMARKS
GOSHEN         LGT SNOW  19  16  88 CALM      30.36F VSB 1
SOUTH BEND     LGT SNOW  18  14  84 VRB3      30.38F FOG

$$

INZ006>009-017-018-025>027-011600-
NORTHEAST INDIANA

CITY           SKY/WX    TMP DP  RH WIND       PRES   REMARKS
ANGOLA *+      CLOUDY    16  10  79 CALM      30.35F
FORT WAYNE     LGT SNOW  19  16  88 CALM      30.37F VSB 3/4

$$

INZ028-029-035-036-043>045-051>053-011600-
WEST CENTRAL INDIANA

CITY           SKY/WX    TMP DP  RH WIND       PRES   REMARKS
CRAWFORDSVL +  LGT SNOW  25  20  82 CALM      30.36S
GREENCASTLE +  LGT SNOW  27  21  80 CALM      30.36S
LAFAYETTE      LGT SNOW  21  20  96 CALM      30.37S VSB 3/4
TERRE HAUTE    LGT SNOW  28  25  88 CALM      30.38R FOG

$$

INZ030>032-037>040-046>048-054>057-064-065-011600-
CENTRAL INDIANA

CITY           SKY/WX    TMP DP  RH WIND       PRES   REMARKS
COLUMBUS       LGT SNOW  27  25  93 NE3       30.37F
INDIANAPOLIS   SNOW      28  24  85 CALM      30.34F VSB 1/2
-EAGLE CREEK   LGT SNOW  26  24  92 CALM      30.34F VSB 3/4
KOKOMO *+        N/A     21  18  86 CALM      30.37S VSB 3/4
MT COMFORT *+  CLOUDY    27  27 100 CALM      30.36S
SHELBYVILLE    LGT SNOW  31  26  82 N3        30.35F

$$

INZ033-034-041-042-049-050-058-059-011600-
EAST CENTRAL INDIANA

CITY           SKY/WX    TMP DP  RH WIND       PRES   REMARKS
MUNCIE         SNOW      27  24  89 CALM      30.35F VSB 1/2

$$

INZ060-061-067>069-081>083-085>088-011600-
SOUTHWEST INDIANA

CITY           SKY/WX    TMP DP  RH WIND       PRES   REMARKS
EVANSVILLE     LGT RAIN  34  28  79 CALM      30.38R
HUNTINGBURG *+ CLOUDY    34  28  80 CALM      30.36S

$$

INZ062-063-066-070>080-084-089>092-011600-
SOUTH CENTRAL AND SOUTHEAST INDIANA

CITY           SKY/WX    TMP DP  RH WIND       PRES   REMARKS
BLOOMINGTON    LGT SNOW  30  28  92 CALM      30.35S VSB 1
SEYMOUR +      LGT RAIN  32  30  93 CALM      30.37R

$$



USA.gov is the U.S. government's official web portal to all federal, state and local government web resources and services.